date,time,SUV Intensity [MED/Hr],UV Index,Daily total [MED],Since Last [MED]
04/09/2023,00:00:52,0.001,0.0,0.0,0.0
04/09/2023,00:01:52,0.000,0.0,0.0,0.0
04/09/2023,00:02:52,0.000,0.0,0.0,0.0
04/09/2023,00:03:52,0.000,0.0,0.0,0.0
04/09/2023,00:04:52,0.000,0.0,0.0,0.0
04/09/2023,00:05:52,-0.000,0.0,0.0,0.0
04/09/2023,00:06:52,0.000,0.0,0.0,0.0
04/09/2023,00:07:52,0.000,0.0,0.0,0.0
04/09/2023,00:08:52,0.001,0.0,0.0,0.0
04/09/2023,00:09:52,-0.001,0.0,0.0,0.0
04/09/2023,00:10:52,0.000,0.0,0.0,0.0
04/09/2023,00:11:54,0.000,0.0,0.0,0.0
04/09/2023,00:12:52,0.000,0.0,0.0,0.0
04/09/2023,00:13:52,0.001,0.0,0.0,0.0
04/09/2023,00:14:52,0.000,0.0,0.0,0.0
04/09/2023,00:15:52,0.000,0.0,0.0,0.0
04/09/2023,00:16:52,0.000,0.0,0.0,0.0
04/09/2023,00:17:52,0.000,0.0,0.0,0.0
04/09/2023,00:18:52,0.000,0.0,0.0,0.0
04/09/2023,00:19:52,0.000,0.0,0.0,0.0
04/09/2023,00:20:52,0.000,0.0,0.0,0.0
04/09/2023,00:21:52,0.000,0.0,0.0,0.0
04/09/2023,00:22:52,0.000,0.0,0.0,0.0
04/09/2023,00:23:52,0.000,0.0,0.0,0.0
04/09/2023,00:24:52,0.000,0.0,0.0,0.0
04/09/2023,00:25:52,0.000,0.0,0.0,0.0
04/09/2023,00:26:52,0.000,0.0,0.0,0.0
04/09/2023,00:27:52,0.000,0.0,0.0,0.0
04/09/2023,00:28:52,0.000,0.0,0.0,0.0
04/09/2023,00:29:52,-0.001,0.0,0.0,0.0
04/09/2023,00:30:52,0.001,0.0,0.0,0.0
04/09/2023,00:31:52,0.000,0.0,0.0,0.0
04/09/2023,00:32:52,0.000,0.0,0.0,0.0
04/09/2023,00:33:52,0.000,0.0,0.0,0.0
04/09/2023,00:34:52,0.000,0.0,0.0,0.0
04/09/2023,00:35:52,0.000,0.0,0.0,0.0
04/09/2023,00:36:52,0.000,0.0,0.0,0.0
04/09/2023,00:37:52,0.000,0.0,0.0,0.0
04/09/2023,00:38:52,0.000,0.0,0.0,0.0
04/09/2023,00:39:52,0.000,0.0,0.0,0.0
04/09/2023,00:40:52,0.001,0.0,0.0,0.0
04/09/2023,00:41:52,0.000,0.0,0.0,0.0
04/09/2023,00:42:52,0.000,0.0,0.0,0.0
04/09/2023,00:43:52,0.000,0.0,0.0,0.0
04/09/2023,00:44:52,0.000,0.0,0.0,0.0
04/09/2023,00:45:52,0.000,0.0,0.0,0.0
04/09/2023,00:46:52,0.000,0.0,0.0,0.0
04/09/2023,00:47:52,0.000,0.0,0.0,0.0
04/09/2023,00:48:52,0.000,0.0,0.0,0.0
04/09/2023,00:49:52,0.000,0.0,0.0,0.0
04/09/2023,00:50:52,0.000,0.0,0.0,0.0
04/09/2023,00:51:52,0.000,0.0,0.0,0.0
04/09/2023,00:52:52,0.000,0.0,0.0,0.0
04/09/2023,00:53:52,0.000,0.0,0.0,0.0
04/09/2023,00:54:52,0.000,0.0,0.0,0.0
04/09/2023,00:55:52,0.000,0.0,0.0,0.0
04/09/2023,00:56:50,0.001,0.0,0.0,0.0
04/09/2023,00:57:50,0.000,0.0,0.0,0.0
04/09/2023,00:58:51,0.000,0.0,0.0,0.0
04/09/2023,00:59:50,0.000,0.0,0.0,0.0
04/09/2023,01:00:52,0.000,0.0,0.0,0.0
04/09/2023,01:01:52,0.000,0.0,0.0,0.0
04/09/2023,01:02:52,0.000,0.0,0.0,0.0
04/09/2023,01:03:52,0.001,0.0,0.0,0.0
04/09/2023,01:04:52,0.000,0.0,0.0,0.0
04/09/2023,01:05:52,0.000,0.0,0.0,0.0
04/09/2023,01:06:53,0.000,0.0,0.0,0.0
04/09/2023,01:07:52,0.000,0.0,0.0,0.0
04/09/2023,01:08:52,0.001,0.0,0.0,0.0
04/09/2023,01:09:52,0.000,0.0,0.0,0.0
04/09/2023,01:10:52,0.000,0.0,0.0,0.0
04/09/2023,01:11:52,0.000,0.0,0.0,0.0
04/09/2023,01:12:51,0.000,0.0,0.0,0.0
04/09/2023,01:14:15,0.000,0.0,0.0,0.0
04/09/2023,01:15:53,0.001,0.0,0.0,0.0
04/09/2023,01:16:50,0.000,0.0,0.0,0.0
04/09/2023,01:17:50,0.000,0.0,0.0,0.0
04/09/2023,01:18:52,0.000,0.0,0.0,0.0
04/09/2023,01:19:52,-0.001,0.0,0.0,0.0
04/09/2023,01:20:52,0.000,0.0,0.0,0.0
04/09/2023,01:21:52,0.000,0.0,0.0,0.0
04/09/2023,01:22:52,0.000,0.0,0.0,0.0
04/09/2023,01:23:52,-0.001,0.0,0.0,0.0
04/09/2023,01:24:52,0.002,0.0,0.0,0.0
04/09/2023,01:25:52,0.000,0.0,0.0,0.0
04/09/2023,01:26:52,0.000,0.0,0.0,0.0
04/09/2023,01:27:52,0.000,0.0,0.0,0.0
04/09/2023,01:28:52,0.000,0.0,0.0,0.0
04/09/2023,01:29:52,0.000,0.0,0.0,0.0
04/09/2023,01:30:53,0.001,0.0,0.0,0.0
04/09/2023,01:31:52,0.000,0.0,0.0,0.0
04/09/2023,01:32:52,0.000,0.0,0.0,0.0
04/09/2023,01:33:53,0.000,0.0,0.0,0.0
04/09/2023,01:34:52,0.000,0.0,0.0,0.0
04/09/2023,01:35:53,0.001,0.0,0.0,0.0
04/09/2023,01:36:52,0.000,0.0,0.0,0.0
04/09/2023,01:37:52,0.001,0.0,0.0,0.0
04/09/2023,01:38:53,0.001,0.0,0.0,0.0
04/09/2023,01:39:54,0.001,0.0,0.0,0.0
04/09/2023,01:40:54,0.000,0.0,0.0,0.0
04/09/2023,01:41:53,0.001,0.0,0.0,0.0
04/09/2023,01:42:52,0.001,0.0,0.0,0.0
04/09/2023,01:43:52,0.001,0.0,0.0,0.0
04/09/2023,01:44:52,0.001,0.0,0.0,0.0
04/09/2023,01:45:52,0.000,0.0,0.0,0.0
04/09/2023,01:46:52,0.000,0.0,0.0,0.0
04/09/2023,01:47:52,0.001,0.0,0.0,0.0
04/09/2023,01:48:52,0.001,0.0,0.0,0.0
04/09/2023,01:49:52,0.000,0.0,0.0,0.0
04/09/2023,01:50:52,0.000,0.0,0.0,0.0
04/09/2023,01:51:52,0.002,0.0,0.0,0.0
04/09/2023,01:52:53,0.000,0.0,0.0,0.0
04/09/2023,01:53:52,0.001,0.0,0.0,0.0
04/09/2023,01:54:52,0.001,0.0,0.0,0.0
04/09/2023,01:55:53,0.002,0.0,0.0,0.0
04/09/2023,01:56:52,0.001,0.0,0.0,0.0
04/09/2023,01:57:52,0.000,0.0,0.0,0.0
04/09/2023,01:58:52,0.000,0.0,0.0,0.0
04/09/2023,01:59:52,0.001,0.0,0.0,0.0
04/09/2023,02:00:53,0.001,0.0,0.0,0.0
04/09/2023,02:01:52,0.000,0.0,0.0,0.0
04/09/2023,02:02:53,0.001,0.0,0.0,0.0
04/09/2023,02:03:53,0.000,0.0,0.0,0.0
04/09/2023,02:04:51,0.001,0.0,0.0,0.0
04/09/2023,02:05:50,0.000,0.0,0.0,0.0
04/09/2023,02:06:52,0.001,0.0,0.0,0.0
04/09/2023,02:07:52,0.000,0.0,0.0,0.0
04/09/2023,02:08:52,0.000,0.0,0.0,0.0
04/09/2023,02:09:53,0.001,0.0,0.0,0.0
04/09/2023,02:10:52,0.000,0.0,0.0,0.0
04/09/2023,02:11:52,0.001,0.0,0.0,0.0
04/09/2023,02:12:52,0.001,0.0,0.0,0.0
04/09/2023,02:13:52,0.001,0.0,0.0,0.0
04/09/2023,02:14:52,0.000,0.0,0.0,0.0
04/09/2023,02:15:52,0.001,0.0,0.0,0.0
04/09/2023,02:16:53,0.001,0.0,0.0,0.0
04/09/2023,02:17:52,0.000,0.0,0.0,0.0
04/09/2023,02:18:52,0.001,0.0,0.0,0.0
04/09/2023,02:19:53,0.002,0.0,0.0,0.0
04/09/2023,02:20:52,0.000,0.0,0.0,0.0
04/09/2023,02:21:50,0.001,0.0,0.0,0.0
04/09/2023,02:22:50,0.001,0.0,0.0,0.0
04/09/2023,02:23:52,0.002,0.0,0.0,0.0
04/09/2023,02:24:52,0.002,0.0,0.0,0.0
04/09/2023,02:25:53,0.001,0.0,0.0,0.0
04/09/2023,02:26:52,0.000,0.0,0.0,0.0
04/09/2023,02:27:52,0.001,0.0,0.0,0.0
04/09/2023,02:28:52,0.001,0.0,0.0,0.0
04/09/2023,02:29:52,0.001,0.0,0.0,0.0
04/09/2023,02:30:52,0.001,0.0,0.0,0.0
04/09/2023,02:31:52,0.001,0.0,0.0,0.0
04/09/2023,02:32:53,0.002,0.0,0.0,0.0
04/09/2023,02:33:52,0.001,0.0,0.0,0.0
04/09/2023,02:34:52,0.002,0.0,0.0,0.0
04/09/2023,02:35:52,0.001,0.0,0.0,0.0
04/09/2023,02:36:53,0.000,0.0,0.0,0.0
04/09/2023,02:37:52,0.000,0.0,0.0,0.0
04/09/2023,02:38:53,0.001,0.0,0.0,0.0
04/09/2023,02:39:52,0.001,0.0,0.0,0.0
04/09/2023,02:40:52,0.001,0.0,0.0,0.0
04/09/2023,02:41:52,0.001,0.0,0.0,0.0
04/09/2023,02:42:51,0.000,0.0,0.0,0.0
04/09/2023,02:43:50,0.001,0.0,0.0,0.0
04/09/2023,02:44:53,0.001,0.0,0.0,0.0
04/09/2023,02:45:52,0.001,0.0,0.0,0.0
04/09/2023,02:46:52,0.001,0.0,0.0,0.0
04/09/2023,02:47:52,0.000,0.0,0.0,0.0
04/09/2023,02:48:52,0.001,0.0,0.0,0.0
04/09/2023,02:49:52,0.001,0.0,0.0,0.0
04/09/2023,02:50:52,0.000,0.0,0.0,0.0
04/09/2023,02:51:52,0.001,0.0,0.0,0.0
04/09/2023,02:52:51,0.000,0.0,0.0,0.0
04/09/2023,02:53:50,0.001,0.0,0.0,0.0
04/09/2023,02:54:52,0.001,0.0,0.0,0.0
04/09/2023,02:55:53,0.001,0.0,0.0,0.0
04/09/2023,02:56:52,0.000,0.0,0.0,0.0
04/09/2023,02:57:53,0.000,0.0,0.0,0.0
04/09/2023,02:58:52,0.001,0.0,0.0,0.0
04/09/2023,02:59:52,0.001,0.0,0.0,0.0
04/09/2023,03:00:53,0.001,0.0,0.0,0.0
04/09/2023,03:01:52,0.001,0.0,0.0,0.0
04/09/2023,03:02:52,0.001,0.0,0.0,0.0
04/09/2023,03:03:53,0.001,0.0,0.0,0.0
04/09/2023,03:04:52,0.001,0.0,0.0,0.0
04/09/2023,03:05:52,0.001,0.0,0.0,0.0
04/09/2023,03:06:52,0.001,0.0,0.0,0.0
04/09/2023,03:07:53,0.001,0.0,0.0,0.0
04/09/2023,03:08:52,0.002,0.0,0.0,0.0
04/09/2023,03:09:52,0.000,0.0,0.0,0.0
04/09/2023,03:10:53,0.001,0.0,0.0,0.0
04/09/2023,03:11:52,0.001,0.0,0.0,0.0
04/09/2023,03:12:52,0.001,0.0,0.0,0.0
04/09/2023,03:13:53,0.001,0.0,0.0,0.0
04/09/2023,03:14:52,0.001,0.0,0.0,0.0
04/09/2023,03:15:52,0.001,0.0,0.0,0.0
04/09/2023,03:16:52,0.001,0.0,0.0,0.0
04/09/2023,03:17:53,0.001,0.0,0.0,0.0
04/09/2023,03:18:52,0.001,0.0,0.0,0.0
04/09/2023,03:19:52,0.001,0.0,0.0,0.0
04/09/2023,03:20:52,0.000,0.0,0.0,0.0
04/09/2023,03:21:53,0.001,0.0,0.0,0.0
04/09/2023,03:22:52,0.001,0.0,0.0,0.0
04/09/2023,03:23:52,0.000,0.0,0.0,0.0
04/09/2023,03:24:52,0.001,0.0,0.0,0.0
04/09/2023,03:25:52,0.001,0.0,0.0,0.0
04/09/2023,03:26:52,0.001,0.0,0.0,0.0
04/09/2023,03:27:54,0.001,0.0,0.0,0.0
04/09/2023,03:28:53,0.001,0.0,0.0,0.0
04/09/2023,03:29:52,0.000,0.0,0.0,0.0
04/09/2023,03:30:50,0.001,0.0,0.0,0.0
04/09/2023,03:31:51,0.001,0.0,0.0,0.0
04/09/2023,03:32:53,0.001,0.0,0.0,0.0
04/09/2023,03:33:52,0.001,0.0,0.0,0.0
04/09/2023,03:34:52,0.001,0.0,0.0,0.0
04/09/2023,03:35:52,0.001,0.0,0.0,0.0
04/09/2023,03:36:53,0.001,0.0,0.0,0.0
04/09/2023,03:37:52,0.001,0.0,0.0,0.0
04/09/2023,03:38:52,0.001,0.0,0.0,0.0
04/09/2023,03:39:53,0.001,0.0,0.0,0.0
04/09/2023,03:40:52,0.000,0.0,0.0,0.0
04/09/2023,03:41:52,0.001,0.0,0.0,0.0
04/09/2023,03:42:50,0.001,0.0,0.0,0.0
04/09/2023,03:43:51,0.001,0.0,0.0,0.0
04/09/2023,03:44:52,0.002,0.0,0.0,0.0
04/09/2023,03:45:52,0.001,0.0,0.0,0.0
04/09/2023,03:46:53,0.002,0.0,0.0,0.0
04/09/2023,03:47:52,0.000,0.0,0.0,0.0
04/09/2023,03:48:52,0.001,0.0,0.0,0.0
04/09/2023,03:49:52,0.002,0.0,0.0,0.0
04/09/2023,03:50:53,0.001,0.0,0.0,0.0
04/09/2023,03:51:52,0.001,0.0,0.0,0.0
04/09/2023,03:52:52,0.001,0.0,0.0,0.0
04/09/2023,03:53:53,0.001,0.0,0.0,0.0
04/09/2023,03:54:52,0.002,0.0,0.0,0.0
04/09/2023,03:55:52,0.001,0.0,0.0,0.0
04/09/2023,03:56:51,0.000,0.0,0.0,0.0
04/09/2023,03:57:51,0.001,0.0,0.0,0.0
04/09/2023,03:58:52,0.001,0.0,0.0,0.0
04/09/2023,03:59:50,0.001,0.0,0.0,0.0
04/09/2023,04:00:50,0.001,0.0,0.0,0.0
04/09/2023,04:01:53,0.001,0.0,0.0,0.0
04/09/2023,04:02:52,0.000,0.0,0.0,0.0
04/09/2023,04:03:53,0.001,0.0,0.0,0.0
04/09/2023,04:04:52,0.001,0.0,0.0,0.0
04/09/2023,04:05:53,0.001,0.0,0.0,0.0
04/09/2023,04:06:51,0.002,0.0,0.0,0.0
04/09/2023,04:08:14,0.001,0.0,0.0,0.0
04/09/2023,04:08:51,0.001,0.0,0.0,0.0
04/09/2023,04:09:52,0.000,0.0,0.0,0.0
04/09/2023,04:10:52,0.002,0.0,0.0,0.0
04/09/2023,04:11:53,0.002,0.0,0.0,0.0
04/09/2023,04:12:53,0.002,0.0,0.0,0.0
04/09/2023,04:13:52,0.000,0.0,0.0,0.0
04/09/2023,04:14:53,0.002,0.0,0.0,0.0
04/09/2023,04:15:52,0.002,0.0,0.0,0.0
04/09/2023,04:16:52,0.001,0.0,0.0,0.0
04/09/2023,04:17:52,0.001,0.0,0.0,0.0
04/09/2023,04:18:53,0.002,0.0,0.0,0.0
04/09/2023,04:19:52,0.000,0.0,0.0,0.0
04/09/2023,04:20:52,0.000,0.0,0.0,0.0
04/09/2023,04:21:52,0.001,0.0,0.0,0.0
04/09/2023,04:22:53,0.001,0.0,0.0,0.0
04/09/2023,04:23:52,0.001,0.0,0.0,0.0
04/09/2023,04:24:52,0.000,0.0,0.0,0.0
04/09/2023,04:25:53,0.001,0.0,0.0,0.0
04/09/2023,04:26:52,0.001,0.0,0.0,0.0
04/09/2023,04:27:52,0.001,0.0,0.0,0.0
04/09/2023,04:28:52,0.000,0.0,0.0,0.0
04/09/2023,04:29:53,0.001,0.0,0.0,0.0
04/09/2023,04:30:52,0.001,0.0,0.0,0.0
04/09/2023,04:31:52,0.001,0.0,0.0,0.0
04/09/2023,04:32:52,0.001,0.0,0.0,0.0
04/09/2023,04:33:52,0.002,0.0,0.0,0.0
04/09/2023,04:34:52,0.001,0.0,0.0,0.0
04/09/2023,04:35:53,0.001,0.0,0.0,0.0
04/09/2023,04:36:52,0.001,0.0,0.0,0.0
04/09/2023,04:37:53,0.002,0.0,0.0,0.0
04/09/2023,04:38:52,0.001,0.0,0.0,0.0
04/09/2023,04:39:53,0.001,0.0,0.0,0.0
04/09/2023,04:40:52,0.001,0.0,0.0,0.0
04/09/2023,04:41:52,0.001,0.0,0.0,0.0
04/09/2023,04:42:53,0.001,0.0,0.0,0.0
04/09/2023,04:43:52,0.001,0.0,0.0,0.0
04/09/2023,04:44:52,0.002,0.0,0.0,0.0
04/09/2023,04:45:52,0.002,0.0,0.0,0.0
04/09/2023,04:46:53,0.000,0.0,0.0,0.0
04/09/2023,04:47:52,0.000,0.0,0.0,0.0
04/09/2023,04:48:52,0.001,0.0,0.0,0.0
04/09/2023,04:49:53,0.001,0.0,0.0,0.0
04/09/2023,04:50:52,0.001,0.0,0.0,0.0
04/09/2023,04:51:52,0.001,0.0,0.0,0.0
04/09/2023,04:52:50,0.000,0.0,0.0,0.0
04/09/2023,04:53:51,0.001,0.0,0.0,0.0
04/09/2023,04:54:52,0.001,0.0,0.0,0.0
04/09/2023,04:55:53,0.001,0.0,0.0,0.0
04/09/2023,04:56:52,0.002,0.0,0.0,0.0
04/09/2023,04:57:52,0.001,0.0,0.0,0.0
04/09/2023,04:58:50,0.001,0.0,0.0,0.0
04/09/2023,04:59:51,0.001,0.0,0.0,0.0
04/09/2023,05:00:52,0.002,0.0,0.0,0.0
04/09/2023,05:01:52,0.002,0.0,0.0,0.0
04/09/2023,05:02:55,0.002,0.0,0.0,0.0
04/09/2023,05:03:53,0.000,0.0,0.0,0.0
04/09/2023,05:04:53,0.002,0.0,0.0,0.0
04/09/2023,05:05:52,0.002,0.0,0.0,0.0
04/09/2023,05:06:53,0.001,0.0,0.0,0.0
04/09/2023,05:07:53,0.002,0.0,0.0,0.0
04/09/2023,05:08:53,0.002,0.0,0.0,0.0
04/09/2023,05:09:53,0.002,0.0,0.0,0.0
04/09/2023,05:10:52,0.002,0.0,0.0,0.0
04/09/2023,05:11:52,0.002,0.0,0.0,0.0
04/09/2023,05:12:53,0.002,0.0,0.0,0.0
04/09/2023,05:13:52,0.002,0.0,0.0,0.0
04/09/2023,05:14:52,0.004,0.0,0.0,0.0
04/09/2023,05:15:53,0.002,0.0,0.0,0.0
04/09/2023,05:16:52,0.002,0.0,0.0,0.0
04/09/2023,05:17:53,0.003,0.0,0.0,0.0
04/09/2023,05:18:52,0.003,0.0,0.0,0.0
04/09/2023,05:19:52,0.003,0.0,0.0,0.0
04/09/2023,05:20:53,0.003,0.0,0.0,0.0
04/09/2023,05:21:52,0.004,0.0,0.0,0.0
04/09/2023,05:22:52,0.003,0.0,0.0,0.0
04/09/2023,05:23:52,0.004,0.0,0.0,0.0
04/09/2023,05:24:53,0.005,0.0,0.0,0.0
04/09/2023,05:25:52,0.005,0.0,0.0,0.0
04/09/2023,05:26:52,0.005,0.0,0.0,0.0
04/09/2023,05:27:53,0.005,0.0,0.0,0.0
04/09/2023,05:28:52,0.005,0.0,0.0,0.0
04/09/2023,05:29:53,0.005,0.0,0.0,0.0
04/09/2023,05:30:52,0.005,0.0,0.0,0.0
04/09/2023,05:31:52,0.005,0.0,0.0,0.0
04/09/2023,05:32:52,0.007,0.0,0.0,0.0
04/09/2023,05:33:53,0.007,0.0,0.0,0.0
04/09/2023,05:34:52,0.006,0.0,0.0,0.0
04/09/2023,05:35:52,0.007,0.0,0.0,0.0
04/09/2023,05:36:53,0.007,0.0,0.001,0.001
04/09/2023,05:37:52,0.008,0.0,0.001,0.0
04/09/2023,05:38:53,0.008,0.0,0.001,0.0
04/09/2023,05:39:52,0.009,0.0,0.001,0.0
04/09/2023,05:40:52,0.009,0.0,0.001,0.0
04/09/2023,05:41:50,0.010,0.0,0.001,0.0
04/09/2023,05:42:51,0.011,0.0,0.001,0.0
04/09/2023,05:43:53,0.010,0.0,0.002,0.001
04/09/2023,05:44:52,0.012,0.0,0.002,0.0
04/09/2023,05:45:52,0.012,0.0,0.002,0.0
04/09/2023,05:46:53,0.012,0.0,0.002,0.0
04/09/2023,05:47:51,0.012,0.0,0.002,0.0
04/09/2023,05:48:51,0.014,0.0,0.003,0.001
04/09/2023,05:49:53,0.014,0.0,0.003,0.0
04/09/2023,05:50:52,0.013,0.0,0.003,0.0
04/09/2023,05:51:53,0.015,0.0,0.003,0.0
04/09/2023,05:52:52,0.017,0.0,0.004,0.001
04/09/2023,05:53:52,0.017,0.0,0.004,0.0
04/09/2023,05:54:52,0.017,0.0,0.004,0.0
04/09/2023,05:55:53,0.018,0.0,0.004,0.0
04/09/2023,05:56:52,0.019,0.0,0.005,0.001
04/09/2023,05:57:52,0.019,0.0,0.005,0.0
04/09/2023,05:58:53,0.021,0.0,0.005,0.0
04/09/2023,05:59:52,0.021,0.0,0.006,0.001
04/09/2023,06:00:53,0.021,0.0,0.006,0.0
04/09/2023,06:01:52,0.022,0.0,0.006,0.0
04/09/2023,06:02:52,0.023,0.0,0.007,0.001
04/09/2023,06:03:53,0.024,0.0,0.007,0.0
04/09/2023,06:04:53,0.025,0.0,0.008,0.001
04/09/2023,06:05:53,0.025,0.0,0.008,0.0
04/09/2023,06:06:52,0.026,0.0,0.008,0.0
04/09/2023,06:07:53,0.027,0.0,0.009,0.001
04/09/2023,06:08:53,0.028,0.0,0.009,0.0
04/09/2023,06:09:52,0.029,0.0,0.01,0.001
04/09/2023,06:10:53,0.031,0.0,0.01,0.0
04/09/2023,06:11:52,0.032,0.0,0.011,0.001
04/09/2023,06:12:52,0.032,0.0,0.011,0.0
04/09/2023,06:13:53,0.034,0.0,0.012,0.001
04/09/2023,06:14:52,0.035,0.0,0.012,0.0
04/09/2023,06:15:53,0.036,0.0,0.013,0.001
04/09/2023,06:16:52,0.038,0.0,0.014,0.001
04/09/2023,06:17:52,0.038,0.0,0.014,0.0
04/09/2023,06:18:53,0.039,0.0,0.015,0.001
04/09/2023,06:19:52,0.041,0.0,0.016,0.001
04/09/2023,06:20:53,0.042,0.0,0.016,0.0
04/09/2023,06:21:52,0.044,0.0,0.017,0.001
04/09/2023,06:22:53,0.045,0.0,0.018,0.001
04/09/2023,06:23:52,0.046,0.0,0.019,0.001
04/09/2023,06:24:52,0.048,0.0,0.019,0.0
04/09/2023,06:25:53,0.049,0.0,0.02,0.001
04/09/2023,06:26:52,0.051,0.0,0.021,0.001
04/09/2023,06:27:53,0.052,0.0,0.022,0.001
04/09/2023,06:28:52,0.053,0.0,0.023,0.001
04/09/2023,06:29:52,0.057,0.0,0.024,0.001
04/09/2023,06:30:53,0.057,0.0,0.025,0.001
04/09/2023,06:31:52,0.058,0.0,0.025,0.0
04/09/2023,06:32:53,0.060,0.0,0.026,0.001
04/09/2023,06:33:53,0.063,0.0,0.028,0.002
04/09/2023,06:34:53,0.064,0.0,0.029,0.001
04/09/2023,06:35:53,0.065,0.0,0.03,0.001
04/09/2023,06:36:52,0.068,0.0,0.031,0.001
04/09/2023,06:37:52,0.070,0.0,0.032,0.001
04/09/2023,06:38:53,0.071,0.0,0.033,0.001
04/09/2023,06:39:52,0.073,0.0,0.034,0.001
04/09/2023,06:40:52,0.075,0.0,0.035,0.001
04/09/2023,06:41:55,0.076,0.0,0.037,0.002
04/09/2023,06:42:52,0.080,0.0,0.038,0.001
04/09/2023,06:43:53,0.082,0.0,0.039,0.001
04/09/2023,06:44:52,0.083,0.0,0.041,0.002
04/09/2023,06:45:53,0.085,0.0,0.042,0.001
04/09/2023,06:46:52,0.089,0.0,0.044,0.002
04/09/2023,06:47:52,0.090,0.0,0.045,0.001
04/09/2023,06:48:53,0.092,0.0,0.047,0.002
04/09/2023,06:49:52,0.096,0.0,0.048,0.001
04/09/2023,06:50:53,0.097,0.0,0.05,0.002
04/09/2023,06:51:52,0.099,0.0,0.051,0.001
04/09/2023,06:52:53,0.102,0.0,0.053,0.002
04/09/2023,06:53:52,0.104,0.0,0.055,0.002
04/09/2023,06:54:52,0.107,0.0,0.057,0.002
04/09/2023,06:55:53,0.109,0.0,0.058,0.001
04/09/2023,06:56:52,0.112,0.0,0.06,0.002
04/09/2023,06:57:53,0.114,0.0,0.062,0.002
04/09/2023,06:58:52,0.117,0.0,0.064,0.002
04/09/2023,06:59:52,0.120,0.0,0.066,0.002
04/09/2023,07:00:53,0.123,0.0,0.068,0.002
04/09/2023,07:01:51,0.126,0.0,0.07,0.002
04/09/2023,07:02:51,0.129,0.0,0.072,0.002
04/09/2023,07:03:53,0.132,0.0,0.074,0.002
04/09/2023,07:04:53,0.134,0.0,0.077,0.003
04/09/2023,07:05:52,0.138,0.0,0.079,0.002
04/09/2023,07:06:53,0.140,0.0,0.081,0.002
04/09/2023,07:07:52,0.142,0.0,0.084,0.003
04/09/2023,07:08:53,0.146,0.0,0.086,0.002
04/09/2023,07:09:53,0.150,0.0,0.088,0.002
04/09/2023,07:10:53,0.153,0.0,0.091,0.003
04/09/2023,07:11:53,0.156,0.0,0.094,0.003
04/09/2023,07:12:52,0.160,0.0,0.096,0.002
04/09/2023,07:13:51,0.163,0.0,0.099,0.003
04/09/2023,07:14:51,0.165,0.0,0.102,0.003
04/09/2023,07:15:52,0.170,0.0,0.104,0.002
04/09/2023,07:16:53,0.174,0.0,0.107,0.003
04/09/2023,07:17:53,0.177,0.0,0.11,0.003
04/09/2023,07:18:52,0.180,0.0,0.113,0.003
04/09/2023,07:19:53,0.184,0.0,0.116,0.003
04/09/2023,07:20:51,0.187,0.0,0.119,0.003
04/09/2023,07:21:50,0.191,0.0,0.122,0.003
04/09/2023,07:22:53,0.195,0.0,0.126,0.004
04/09/2023,07:23:52,0.198,0.0,0.129,0.003
04/09/2023,07:24:52,0.202,0.0,0.132,0.003
04/09/2023,07:25:53,0.206,0.0,0.136,0.004
04/09/2023,07:26:52,0.210,0.0,0.139,0.003
04/09/2023,07:27:53,0.214,0.0,0.143,0.004
04/09/2023,07:28:53,0.217,0.0,0.146,0.003
04/09/2023,07:29:53,0.222,1.0,0.15,0.004
04/09/2023,07:30:52,0.226,1.0,0.154,0.004
04/09/2023,07:31:53,0.230,1.0,0.157,0.003
04/09/2023,07:32:53,0.234,1.0,0.161,0.004
04/09/2023,07:33:53,0.237,1.0,0.165,0.004
04/09/2023,07:34:52,0.242,1.0,0.169,0.004
04/09/2023,07:35:53,0.246,1.0,0.173,0.004
04/09/2023,07:36:53,0.252,1.0,0.177,0.004
04/09/2023,07:37:53,0.256,1.0,0.182,0.005
04/09/2023,07:38:52,0.259,1.0,0.186,0.004
04/09/2023,07:39:51,0.265,1.0,0.19,0.004
04/09/2023,07:40:51,0.268,1.0,0.195,0.005
04/09/2023,07:41:52,0.272,1.0,0.199,0.004
04/09/2023,07:42:53,0.277,1.0,0.204,0.005
04/09/2023,07:43:53,0.283,1.0,0.208,0.004
04/09/2023,07:44:53,0.288,1.0,0.213,0.005
04/09/2023,07:45:52,0.292,1.0,0.218,0.005
04/09/2023,07:46:53,0.296,1.0,0.223,0.005
04/09/2023,07:47:52,0.301,1.0,0.228,0.005
04/09/2023,07:48:53,0.306,1.0,0.233,0.005
04/09/2023,07:49:53,0.311,1.0,0.238,0.005
04/09/2023,07:50:53,0.317,1.0,0.243,0.005
04/09/2023,07:51:52,0.321,1.0,0.249,0.006
04/09/2023,07:52:51,0.326,1.0,0.254,0.005
04/09/2023,07:53:51,0.329,1.0,0.259,0.005
04/09/2023,07:54:53,0.335,1.0,0.265,0.006
04/09/2023,07:55:52,0.340,1.0,0.271,0.006
04/09/2023,07:56:52,0.345,1.0,0.276,0.005
04/09/2023,07:57:53,0.352,1.0,0.282,0.006
04/09/2023,07:58:53,0.357,1.0,0.288,0.006
04/09/2023,07:59:53,0.363,1.0,0.294,0.006
04/09/2023,08:00:53,0.367,1.0,0.3,0.006
04/09/2023,08:01:53,0.373,1.0,0.306,0.006
04/09/2023,08:02:53,0.378,1.0,0.313,0.007
04/09/2023,08:03:52,0.384,1.0,0.319,0.006
04/09/2023,08:04:53,0.389,1.0,0.326,0.007
04/09/2023,08:05:53,0.396,1.0,0.332,0.006
04/09/2023,08:06:52,0.401,1.0,0.339,0.007
04/09/2023,08:07:53,0.408,1.0,0.345,0.006
04/09/2023,08:08:53,0.412,1.0,0.352,0.007
04/09/2023,08:09:53,0.420,1.0,0.359,0.007
04/09/2023,08:10:52,0.426,1.0,0.366,0.007
04/09/2023,08:11:53,0.430,1.0,0.373,0.007
04/09/2023,08:12:52,0.438,1.0,0.381,0.008
04/09/2023,08:13:53,0.445,1.0,0.388,0.007
04/09/2023,08:14:52,0.451,1.0,0.395,0.007
04/09/2023,08:15:52,0.456,1.0,0.403,0.008
04/09/2023,08:16:51,0.464,1.0,0.41,0.007
04/09/2023,08:17:50,0.469,1.0,0.418,0.008
04/09/2023,08:18:52,0.476,1.0,0.426,0.008
04/09/2023,08:19:53,0.484,1.0,0.434,0.008
04/09/2023,08:20:53,0.488,1.0,0.442,0.008
04/09/2023,08:21:52,0.495,1.0,0.451,0.009
04/09/2023,08:22:53,0.502,1.0,0.459,0.008
04/09/2023,08:23:53,0.509,1.0,0.468,0.009
04/09/2023,08:24:53,0.515,1.0,0.476,0.008
04/09/2023,08:25:52,0.522,1.0,0.485,0.009
04/09/2023,08:26:53,0.527,1.0,0.493,0.008
04/09/2023,08:27:53,0.531,1.0,0.502,0.009
04/09/2023,08:28:53,0.541,1.0,0.511,0.009
04/09/2023,08:29:53,0.548,1.0,0.52,0.009
04/09/2023,08:30:53,0.554,1.0,0.529,0.009
04/09/2023,08:31:52,0.561,1.0,0.539,0.01
04/09/2023,08:32:53,0.569,1.0,0.548,0.009
04/09/2023,08:33:53,0.577,1.0,0.558,0.01
04/09/2023,08:34:53,0.583,1.0,0.567,0.009
04/09/2023,08:35:53,0.592,1.0,0.577,0.01
04/09/2023,08:36:52,0.599,1.0,0.587,0.01
04/09/2023,08:37:53,0.609,1.0,0.597,0.01
04/09/2023,08:38:51,0.612,1.0,0.607,0.01
04/09/2023,08:39:50,0.619,1.0,0.617,0.01
04/09/2023,08:40:53,0.629,1.0,0.628,0.011
04/09/2023,08:41:52,0.636,1.0,0.638,0.01
04/09/2023,08:42:52,0.643,1.0,0.649,0.011
04/09/2023,08:43:53,0.653,2.0,0.66,0.011
04/09/2023,08:44:53,0.654,2.0,0.671,0.011
04/09/2023,08:45:52,0.663,2.0,0.682,0.011
04/09/2023,08:46:51,0.671,2.0,0.693,0.011
04/09/2023,08:47:50,0.676,2.0,0.704,0.011
04/09/2023,08:48:53,0.683,2.0,0.715,0.011
04/09/2023,08:49:52,0.691,2.0,0.727,0.012
04/09/2023,08:50:53,0.701,2.0,0.739,0.012
04/09/2023,08:51:53,0.707,2.0,0.75,0.011
04/09/2023,08:52:53,0.717,2.0,0.762,0.012
04/09/2023,08:53:53,0.724,2.0,0.774,0.012
04/09/2023,08:54:53,0.731,2.0,0.786,0.012
04/09/2023,08:55:52,0.737,2.0,0.798,0.012
04/09/2023,08:56:53,0.743,2.0,0.811,0.013
04/09/2023,08:57:53,0.754,2.0,0.824,0.013
04/09/2023,08:58:53,0.761,2.0,0.836,0.012
04/09/2023,08:59:53,0.772,2.0,0.849,0.013
04/09/2023,09:00:52,0.773,2.0,0.861,0.012
04/09/2023,09:01:53,0.783,2.0,0.874,0.013
04/09/2023,09:02:52,0.793,2.0,0.888,0.014
04/09/2023,09:03:53,0.801,2.0,0.901,0.013
04/09/2023,09:04:53,0.810,2.0,0.914,0.013
04/09/2023,09:05:53,0.815,2.0,0.928,0.014
04/09/2023,09:06:53,0.826,2.0,0.942,0.014
04/09/2023,09:07:53,0.835,2.0,0.955,0.013
04/09/2023,09:08:53,0.841,2.0,0.969,0.014
04/09/2023,09:09:53,0.845,2.0,0.983,0.014
04/09/2023,09:10:53,0.856,2.0,0.998,0.015
04/09/2023,09:11:53,0.864,2.0,1.012,0.014
04/09/2023,09:12:53,0.873,2.0,1.027,0.015
04/09/2023,09:13:53,0.880,2.0,1.041,0.014
04/09/2023,09:14:53,0.890,2.0,1.056,0.015
04/09/2023,09:15:52,0.895,2.0,1.071,0.015
04/09/2023,09:16:52,0.898,2.0,1.085,0.014
04/09/2023,09:17:53,0.911,2.0,1.101,0.016
04/09/2023,09:18:52,0.920,2.0,1.116,0.015
04/09/2023,09:19:53,0.924,2.0,1.132,0.016
04/09/2023,09:20:53,0.931,2.0,1.147,0.015
04/09/2023,09:21:53,0.936,2.0,1.162,0.015
04/09/2023,09:22:53,0.952,2.0,1.178,0.016
04/09/2023,09:23:53,0.956,2.0,1.194,0.016
04/09/2023,09:24:53,0.962,2.0,1.21,0.016
04/09/2023,09:25:53,0.970,2.0,1.226,0.016
04/09/2023,09:26:52,0.974,2.0,1.242,0.016
04/09/2023,09:27:53,0.992,2.0,1.259,0.017
04/09/2023,09:28:53,0.993,2.0,1.275,0.016
04/09/2023,09:29:53,1.002,2.0,1.292,0.017
04/09/2023,09:30:53,1.010,2.0,1.309,0.017
04/09/2023,09:31:53,1.010,2.0,1.325,0.016
04/09/2023,09:32:53,1.027,2.0,1.342,0.017
04/09/2023,09:33:53,1.038,2.0,1.359,0.017
04/09/2023,09:34:53,1.042,2.0,1.377,0.018
04/09/2023,09:35:52,1.049,2.0,1.394,0.017
04/09/2023,09:36:53,1.060,2.0,1.412,0.018
04/09/2023,09:37:53,1.067,2.0,1.429,0.017
04/09/2023,09:38:53,1.073,2.0,1.447,0.018
04/09/2023,09:39:53,1.081,2.0,1.466,0.019
04/09/2023,09:40:53,1.091,3.0,1.483,0.017
04/09/2023,09:41:53,1.097,3.0,1.502,0.019
04/09/2023,09:42:52,1.111,3.0,1.52,0.018
04/09/2023,09:43:53,1.118,3.0,1.538,0.018
04/09/2023,09:44:53,1.124,3.0,1.558,0.02
04/09/2023,09:45:53,1.131,3.0,1.576,0.018
04/09/2023,09:46:53,1.139,3.0,1.595,0.019
04/09/2023,09:47:53,1.146,3.0,1.614,0.019
04/09/2023,09:48:53,1.152,3.0,1.633,0.019
04/09/2023,09:49:53,1.160,3.0,1.653,0.02
04/09/2023,09:50:53,1.171,3.0,1.672,0.019
04/09/2023,09:51:51,1.176,3.0,1.691,0.019
04/09/2023,09:52:51,1.183,3.0,1.71,0.019
04/09/2023,09:53:53,1.190,3.0,1.731,0.021
04/09/2023,09:54:54,1.196,3.0,1.751,0.02
04/09/2023,09:55:53,1.204,3.0,1.771,0.02
04/09/2023,09:56:53,1.210,3.0,1.791,0.02
04/09/2023,09:57:53,1.218,3.0,1.811,0.02
04/09/2023,09:58:53,1.225,3.0,1.832,0.021
04/09/2023,09:59:53,1.231,3.0,1.852,0.02
04/09/2023,10:00:53,1.242,3.0,1.872,0.02
04/09/2023,10:01:53,1.246,3.0,1.893,0.021
04/09/2023,10:02:53,1.253,3.0,1.915,0.022
04/09/2023,10:03:53,1.260,3.0,1.935,0.02